Погода в Анциферове

Россия / Красноярский край     58°52′23″N   91°51′33″E
темп.,
°C
ветер,
м/с
пор.,
м/с
влажн.,
%
обл.,
%
осадки,
мм/ч
давл.,
гПа
погр.,
м
16 июня, ср
ср1601:00+10ююв2497100 0.0 101288
04:00+9юв269899 0.0 1013158
07:00+12юв367484 0.0 1013330
10:00+18ююв4661100 0.1 1013990
13:00+19ююз4660100 0.1 10121222
16:00+21ююз3448100 0.0 10121623
19:00+19юз1365100 0.1 1011430
22:00+14ю2288100 0.0 101133
17 июня, чт
чт1701:00+12юв279817 0.0 1011130
04:00+11юв399814 0.0 1011208
07:00+15юв498691 0.1 1010345
10:00+17ююв487897 0.2 1010568
13:00+20юв57657 0.3 1009824
16:00+24юв565010 0.0 10061402
19:00+17вюв3897100 14.0 1006236
22:00+16вюв3998100 5.6 1005319
18 июня, пт
пт1801:00+15вюв2699100 6.4 1005204
04:00+13юв119998 0.1 100434
07:00+16вюв0095100 0.3 1005189
10:00+16юз119643 0.4 100573
13:00+20зюз247515 1.8 1004963
16:00+24зюз2542100 0.6 10032348
19:00+21зюз355646 0.6 1003613
22:00+14ююз23945 0.4 100361
19 июня, сб
сб1901:00+12юв2297100 0.5 100335
04:00+11юв239957 0.9 100359
07:00+14вюв129897 2.1 1003236
10:00+17вюв238393 0.0 1003576
13:00+23в22570 0.0 10021000
16:00+25св12467 0.0 10011659
19:00+25с02544 0.0 10011239
22:00+17в01800 0.0 100111
20 июня, вс
вс2001:00+14вюв11890 0.0 100211
04:00+13вюв11951 0.0 100211
07:00+18в237474 0.0 1003213
10:00+24вюв225180 0.0 10031019
13:00+27ююв11385 0.0 10021915
16:00+28св0235100 0.0 10022209
19:00+26ююв1155100 0.0 100383
22:00+19ю11667 0.0 100412